Monroe, LA

4:23 PM CST on January 20, 2017 (GMT -0600)
Monroe Regional

Weather History for KMLU - June, 2012

Change the Weather History Date:

Sunday, June 10, 2012

  Actual Average Record
Temperature  
Mean Temperature 83 °F 80 °F  
Max Temperature 92 °F 91 °F 100 °F (1963)
Min Temperature 73 °F 69 °F 54 °F (1930)
Degree Days  
Heating Degree Days 0 0  
Month to date heating degree days 0 0  
Since 1 June heating degree days 0 0  
Since 1 July heating degree days 1563 2230  
Cooling Degree Days 18 15  
Month to date cooling degree days 157 139  
Year to date cooling degree days 834 574  
Since 1 June cooling degree days 157 139  
Growing Degree Days 31 (Base 50)    
Moisture  
Dew Point 71 °F    
Average Humidity 73    
Maximum Humidity 93    
Minimum Humidity 52    
Precipitation  
Precipitation T in 0.15 in 2.31 in (1975)
Month to date precipitation T 1.49  
Year to date precipitation 24.37 25.54  
Snow  
Snow 0.00 in - - ()
Month to date snowfall 0.0  
Since 1 June snowfall 0.0  
Since 1 July snowfall T  
Snow Depth 0.00 in    
Sea Level Pressure  
Sea Level Pressure 29.85 in    
Wind  
Wind Speed 2 mph (SE)    
Max Wind Speed 8 mph    
Max Gust Speed 12 mph    
Visibility 10 miles    
Events      
T = Trace of Precipitation, MM = Missing Value Source: NWS Daily Summary

Daily Weather History Graph

Daily Weather History Graph

Search for Another Location

Airport or City:

Trip Planner

Search our weather history database for the weather conditions in past years. The results will help you decide how hot, cold, wet, or windy it might be!

Date:

Astronomy

Jun. 10, 2012 Rise Set
Actual Time 6:00 AM CDT 8:15 PM CDT
Civil Twilight 5:31 AM CDT 8:43 PM CDT
Nautical Twilight 4:57 AM CDT 9:18 PM CDT
Astronomical Twilight 4:19 AM CDT 9:56 PM CDT
Moon 12:26 AM CDT (6/10) 12:29 PM CDT (6/10)
Length of Visible Light 15h 11m
Length of Day
14h 15m
Waning Gibbous, 58% of the Moon is Illuminated
Jun 10
Waning Gibbous
Jun 11
Last Quarter
Jun 19
New
Jun 26
First Quarter
Jul 3
Full

Hourly Weather History & Observations

Time (CDT) Temp. Heat Index Dew Point Humidity Pressure Visibility Wind Dir Wind Speed Gust Speed Precip Events Conditions
12:05 AM 77.0 °F - 71.6 °F 83% 29.85 in 10.0 mi Calm Calm - N/A   Overcast
12:53 AM 78.1 °F - 71.1 °F 79% 29.84 in 10.0 mi Variable 3.5 mph - N/A   Overcast
1:20 AM 75.2 °F - 71.6 °F 89% 29.84 in 10.0 mi Variable 4.6 mph - N/A   Overcast
1:46 AM 75.2 °F - 71.6 °F 89% 29.84 in 10.0 mi Calm Calm - 0.00 in   Overcast
1:53 AM 75.0 °F - 71.1 °F 87% 29.83 in 10.0 mi Calm Calm - 0.00 in   Overcast
2:53 AM 75.0 °F - 71.1 °F 87% 29.83 in 10.0 mi Calm Calm - N/A   Clear
3:24 AM 73.4 °F - 71.6 °F 94% 29.83 in 10.0 mi Calm Calm - N/A   Mostly Cloudy
3:53 AM 73.9 °F - 71.1 °F 91% 29.83 in 10.0 mi SE 3.5 mph - N/A   Overcast
4:23 AM 73.4 °F - 69.8 °F 88% 29.83 in 10.0 mi Variable 3.5 mph - N/A   Scattered Clouds
4:53 AM 73.0 °F - 70.0 °F 90% 29.82 in 10.0 mi Variable 3.5 mph - N/A   Partly Cloudy
5:53 AM 73.0 °F - 69.1 °F 87% 29.82 in 10.0 mi Calm Calm - N/A   Mostly Cloudy
6:22 AM 73.4 °F - 69.8 °F 88% 29.83 in 10.0 mi Calm Calm - N/A   Mostly Cloudy
6:53 AM 73.0 °F - 69.1 °F 87% 29.84 in 10.0 mi Calm Calm - N/A   Overcast
7:24 AM 73.4 °F - 69.8 °F 88% 29.85 in 10.0 mi Calm Calm - N/A   Overcast
7:53 AM 73.9 °F - 70.0 °F 87% 29.85 in 10.0 mi SSE 4.6 mph - N/A   Overcast
8:53 AM 75.9 °F - 71.1 °F 85% 29.86 in 10.0 mi East 3.5 mph - N/A   Overcast
9:53 AM 79.0 °F - 71.1 °F 77% 29.87 in 10.0 mi East 5.8 mph - N/A   Overcast
10:28 AM 78.8 °F - 71.6 °F 78% 29.88 in 10.0 mi Variable 3.5 mph - N/A   Overcast
10:53 AM 79.0 °F - 71.1 °F 77% 29.89 in 10.0 mi Variable 4.6 mph - N/A   Overcast
11:26 AM 80.6 °F 84.6 °F 71.6 °F 74% 29.89 in 10.0 mi Variable 3.5 mph - N/A   Overcast
11:53 AM 82.0 °F 86.3 °F 71.1 °F 69% 29.88 in 10.0 mi Calm Calm - N/A   Mostly Cloudy
12:53 PM 84.9 °F 90.1 °F 71.1 °F 63% 29.86 in 10.0 mi West 4.6 mph - N/A   Mostly Cloudy
1:53 PM 84.9 °F 88.8 °F 69.1 °F 59% 29.85 in 10.0 mi Calm Calm - N/A   Overcast
2:53 PM 87.1 °F 91.3 °F 69.1 °F 55% 29.84 in 10.0 mi Calm Calm - N/A   Clear
3:53 PM 89.1 °F 93.7 °F 69.1 °F 52% 29.84 in 10.0 mi Calm Calm - N/A   Scattered Clouds
4:53 PM 89.1 °F 93.7 °F 69.1 °F 52% 29.83 in 10.0 mi Calm Calm - N/A   Partly Cloudy
5:53 PM 89.1 °F 94.1 °F 70.0 °F 53% 29.83 in 10.0 mi ESE 3.5 mph - N/A   Clear
6:53 PM 89.1 °F 94.1 °F 70.0 °F 53% 29.83 in 10.0 mi Variable 4.6 mph - N/A   Clear
7:53 PM 87.1 °F 92.8 °F 71.1 °F 59% 29.83 in 10.0 mi ESE 4.6 mph - N/A   Mostly Cloudy
8:53 PM 82.9 °F 87.5 °F 71.1 °F 67% 29.84 in 10.0 mi South 4.6 mph - N/A   Partly Cloudy
9:53 PM 82.0 °F 86.7 °F 72.0 °F 71% 29.86 in 10.0 mi South 5.8 mph - N/A   Clear
10:53 PM 80.1 °F 83.8 °F 72.0 °F 76% 29.88 in 10.0 mi SSE 4.6 mph - N/A   Clear
11:53 PM 79.0 °F - 72.0 °F 79% 29.88 in 10.0 mi Calm Calm - N/A   Clear